CZ-6A DEB, 54994

Orbit data source: Space-Track

CZ-6A DEB, 54994 is space debris in SSO originally from a launch on Fri, 11 Nov 2022 UTC launched from the Taiyaun Space Center, China (TSC). Debris objects in space refer to the collection of defunct objects orbiting the Earth. Examples of debris include non-operational satellites, rocket bodies, and fragments generated from explosions, collisions, or faulty payload assembly.

Loading next visibility...
Identifier
54994, 2022-151UK
Orbit
SSO
Country
Flag of CNCN / PRC
Related business
Manufacturer
SAST
Mission
Spacecraft
Bus & Motor
Unknown
Mass
Unknown
Launch date (UTC)
2022-11-11 (4 years ago)
Launch vehicle
Unknown
Launch site
Taiyaun Space Center, China (TSC)
Object type
Payload
Rocket body
Debris
Shape & HBR
Unknown shape, 0.1 m
Radar Cross Section
Medium (>0.1 m² and <1 m²)

Expand to show TLE details & history
Last TLE update: 23 hours ago

TLE from 23 hours ago
0 CZ-6A DEB
1 54994U 22151UK  26168.10782043  .00003557  00000-0  11511-2 0  9991
2 54994  98.8255 218.2799 0009585  97.9280 262.2995 14.39665913186344
Epoch: 2026-06-17T02:35Z
TLE epoch observation values (Epoch: 2026-06-17T02:35:15.685Z)
Latitude
-0.00002°
Longitude
-85.90569°
Altitude
763.463 km
Speed
7.472 km/s
True Right ascension
14h 33m 07s
True Declination
0° 00' 00"
Sunlit
Object was in full shadow at epoch
Visualization orbit readout
Latitude
Unknown
Longitude
Unknown
Altitude
Unknown
Speed
Unknown
Apparent Right ascension
Unknown
Apparent Declination
Unknown
Sunlit
N/A
Visualization observer readout
Local Sidereal Time
12:40:12
Azimuth
Unknown
Elevation
Unknown
Doppler factor
Unknown
Orbital elements
Apogee altitude
763.579 km
Perigee altitude
749.902 km
Semi-major axis
7,134.877 km
Eccentricity
0.00096
Inclination
98.8255°
RAAN
218.2799°
Arg. of periapsis
97.928°
True anomaly
262.19067°
Mean anomaly
262.2995°
Eccentric anomaly
262.24508°
Mean motion
3.60133 °/min
Orbital period
99.96 mins
BSTAR
0.0011511
Loading maneuver chart data...
Computing Atmospheric mass density...

Documentation

Showing up to 5 results
|